When you browse on this site, cookies collect data to enhance your experience and personalize the content and advertising you see.
Visit our Privacy Policy to learn more. By continuing to use the site, you agree to this use of cookies and data.

Meteo orario Detomlya

Oggi, 13 Luglio, Lunedi

Tempo Temperatura Precipitazioni Vento Pressione Umidità
00:00 +10°C° 0 mm 3 m/s 751 mm Hg 94%
01:00 +9°C° 0 mm 3 m/s 752 mm Hg 94%
02:00 +8°C° 0 mm 3 m/s 752 mm Hg 95%
03:00 +8°C° 0 mm 3 m/s 752 mm Hg 95%
04:00 +8°C° 0 mm 3 m/s 751 mm Hg 96%
05:00 +7°C° 0 mm 3 m/s 751 mm Hg 96%
06:00 +9°C° 0 mm 3 m/s 751 mm Hg 91%
07:00 +11°C° 0 mm 3 m/s 751 mm Hg 86%
08:00 +13°C° 0 mm 3 m/s 751 mm Hg 80%
09:00 +14°C° 0 mm 4 m/s 751 mm Hg 75%
10:00 +15°C° 0 mm 4 m/s 750 mm Hg 70%
11:00 +17°C° 0 mm 4 m/s 750 mm Hg 64%
12:00 +18°C° 0.1 mm 4 m/s 750 mm Hg 62%
13:00 +19°C° 0.1 mm 3 m/s 750 mm Hg 60%
14:00 +19°C° 0.1 mm 3 m/s 750 mm Hg 58%
15:00 +19°C° 0 mm 3 m/s 749 mm Hg 59%
16:00 +19°C° 0 mm 3 m/s 749 mm Hg 60%
17:00 +19°C° 0 mm 3 m/s 749 mm Hg 61%
18:00 +18°C° 0 mm 3 m/s 748 mm Hg 67%
19:00 +17°C° 0 mm 2 m/s 748 mm Hg 73%
20:00 +15°C° 0 mm 2 m/s 748 mm Hg 79%
21:00 +14°C° 0 mm 2 m/s 748 mm Hg 83%
22:00 +13°C° 0 mm 2 m/s 749 mm Hg 88%
23:00 +12°C° 0 mm 2 m/s 749 mm Hg 92%

Domani, 14 Luglio, Martedi

Tempo Temperatura Precipitazioni Vento Pressione Umidità
00:00 +10°C° 0 mm 2 m/s 749 mm Hg 93%
01:00 +10°C° 0 mm 2 m/s 749 mm Hg 95%
02:00 +10°C° 0 mm 2 m/s 749 mm Hg 96%
03:00 +10°C° 0 mm 2 m/s 749 mm Hg 96%
04:00 +9°C° 0 mm 2 m/s 749 mm Hg 97%
05:00 +9°C° 0 mm 2 m/s 748 mm Hg 98%
06:00 +12°C° 0 mm 2 m/s 749 mm Hg 92%
07:00 +14°C° 0 mm 2 m/s 749 mm Hg 87%
08:00 +16°C° 0 mm 2 m/s 749 mm Hg 82%
09:00 +17°C° 0 mm 3 m/s 749 mm Hg 77%
10:00 +18°C° 0 mm 3 m/s 748 mm Hg 72%
11:00 +19°C° 0 mm 3 m/s 748 mm Hg 67%
12:00 +20°C° 0.2 mm 3 m/s 748 mm Hg 66%
13:00 +20°C° 0.2 mm 3 m/s 748 mm Hg 65%
14:00 +21°C° 0.2 mm 4 m/s 748 mm Hg 64%
15:00 +20°C° 0.1 mm 4 m/s 747 mm Hg 66%
16:00 +20°C° 0.1 mm 4 m/s 747 mm Hg 67%
17:00 +20°C° 0.1 mm 4 m/s 747 mm Hg 68%
18:00 +19°C° 0.1 mm 3 m/s 747 mm Hg 74%
19:00 +18°C° 0.1 mm 3 m/s 747 mm Hg 80%
20:00 +16°C° 0.1 mm 2 m/s 747 mm Hg 86%
21:00 +15°C° 0 mm 2 m/s 747 mm Hg 88%
22:00 +14°C° 0 mm 2 m/s 747 mm Hg 91%
23:00 +13°C° 0 mm 2 m/s 747 mm Hg 93%

Dopodomani, 15 Luglio, Mercoledi

Tempo Temperatura Precipitazioni Vento Pressione Umidità
00:00 +13°C° 0 mm 2 m/s 747 mm Hg 93%
01:00 +13°C° 0 mm 2 m/s 747 mm Hg 94%
02:00 +12°C° 0 mm 2 m/s 747 mm Hg 94%
03:00 +12°C° 0 mm 2 m/s 747 mm Hg 95%
04:00 +12°C° 0 mm 2 m/s 747 mm Hg 95%
05:00 +12°C° 0 mm 2 m/s 747 mm Hg 95%
06:00 +13°C° 0 mm 2 m/s 747 mm Hg 90%
07:00 +15°C° 0 mm 2 m/s 747 mm Hg 86%
08:00 +17°C° 0 mm 2 m/s 747 mm Hg 81%
09:00 +18°C° 0 mm 2 m/s 747 mm Hg 75%
10:00 +20°C° 0 mm 2 m/s 747 mm Hg 69%
11:00 +21°C° 0 mm 2 m/s 747 mm Hg 63%
12:00 +21°C° 0 mm 2 m/s 747 mm Hg 62%
13:00 +23°C° 0 mm 2 m/s 747 mm Hg 60%
14:00 +23°C° 0 mm 2 m/s 747 mm Hg 59%
15:00 +23°C° 0.2 mm 2 m/s 746 mm Hg 61%
16:00 +23°C° 0.2 mm 2 m/s 746 mm Hg 64%
17:00 +23°C° 0.2 mm 2 m/s 746 mm Hg 66%
18:00 +21°C° 0.4 mm 1 m/s 746 mm Hg 73%
19:00 +20°C° 0.4 mm 1 m/s 746 mm Hg 79%
20:00 +19°C° 0.4 mm 1 m/s 746 mm Hg 85%
21:00 +18°C° 0.1 mm 1 m/s 747 mm Hg 86%
22:00 +15°C° 0.1 mm 0 m/s 747 mm Hg 87%
23:00 +14°C° 0.1 mm 0 m/s 747 mm Hg 88%

16 Luglio, Giovedi

Tempo Temperatura Precipitazioni Vento Pressione Umidità
00:00 +13°C° 0 mm 0 m/s 747 mm Hg 88%
01:00 +13°C° 0 mm 0 m/s 747 mm Hg 89%
02:00 +13°C° 0 mm 0 m/s 747 mm Hg 90%
03:00 +13°C° 0 mm 0 m/s 747 mm Hg 90%
04:00 +13°C° 0 mm 0 m/s 747 mm Hg 90%
05:00 +13°C° 0 mm 0 m/s 746 mm Hg 90%
06:00 +15°C° 0 mm 0 m/s 747 mm Hg 87%
07:00 +16°C° 0 mm 0 m/s 747 mm Hg 83%
08:00 +18°C° 0 mm 0 m/s 747 mm Hg 79%
09:00 +19°C° 0 mm 0 m/s 747 mm Hg 73%
10:00 +23°C° 0 mm 1 m/s 747 mm Hg 67%
11:00 +24°C° 0 mm 1 m/s 747 mm Hg 61%
12:00 +25°C° 0 mm 1 m/s 747 mm Hg 58%
13:00 +25°C° 0 mm 1 m/s 746 mm Hg 56%
14:00 +26°C° 0 mm 1 m/s 746 mm Hg 53%
15:00 +26°C° 0.1 mm 1 m/s 746 mm Hg 54%
16:00 +25°C° 0.1 mm 1 m/s 746 mm Hg 55%
17:00 +25°C° 0.1 mm 1 m/s 746 mm Hg 57%
18:00 +24°C° 0 mm 1 m/s 746 mm Hg 65%
19:00 +22°C° 0 mm 1 m/s 746 mm Hg 73%
20:00 +19°C° 0 mm 2 m/s 746 mm Hg 81%
21:00 +18°C° 0 mm 2 m/s 746 mm Hg 84%
22:00 +17°C° 0 mm 2 m/s 747 mm Hg 86%
23:00 +16°C° 0 mm 2 m/s 747 mm Hg 89%

17 Luglio, Venerdi

Tempo Temperatura Precipitazioni Vento Pressione Umidità
00:00 +16°C° 0 mm 2 m/s 747 mm Hg 89%
01:00 +15°C° 0 mm 2 m/s 747 mm Hg 89%
02:00 +15°C° 0 mm 2 m/s 747 mm Hg 88%
03:00 +14°C° 0 mm 2 m/s 747 mm Hg 87%
04:00 +14°C° 0 mm 2 m/s 747 mm Hg 86%
05:00 +14°C° 0 mm 2 m/s 747 mm Hg 85%
06:00 +15°C° 0 mm 2 m/s 747 mm Hg 81%
07:00 +17°C° 0 mm 2 m/s 747 mm Hg 77%
08:00 +19°C° 0 mm 2 m/s 748 mm Hg 72%
09:00 +20°C° 0 mm 2 m/s 748 mm Hg 68%
10:00 +23°C° 0 mm 2 m/s 748 mm Hg 63%
11:00 +24°C° 0 mm 3 m/s 748 mm Hg 59%
12:00 +24°C° 0 mm 3 m/s 748 mm Hg 58%
13:00 +25°C° 0 mm 3 m/s 748 mm Hg 57%
14:00 +25°C° 0 mm 3 m/s 748 mm Hg 57%
15:00 +25°C° 0 mm 3 m/s 748 mm Hg 58%
16:00 +25°C° 0 mm 3 m/s 748 mm Hg 59%
17:00 +24°C° 0 mm 3 m/s 748 mm Hg 60%
18:00 +23°C° 0 mm 2 m/s 748 mm Hg 66%
19:00 +20°C° 0 mm 2 m/s 748 mm Hg 72%
20:00 +19°C° 0 mm 2 m/s 748 mm Hg 77%
21:00 +18°C° 0 mm 2 m/s 748 mm Hg 80%
22:00 +16°C° 0 mm 1 m/s 748 mm Hg 83%
23:00 +15°C° 0 mm 1 m/s 748 mm Hg 86%

18 Luglio, Sabato

Tempo Temperatura Precipitazioni Vento Pressione Umidità
00:00 +15°C° 0 mm 1 m/s 748 mm Hg 86%
01:00 +14°C° 0 mm 1 m/s 748 mm Hg 86%
02:00 +14°C° 0 mm 1 m/s 748 mm Hg 86%
03:00 +14°C° 0 mm 1 m/s 749 mm Hg 87%
04:00 +14°C° 0 mm 1 m/s 749 mm Hg 88%
05:00 +14°C° 0 mm 1 m/s 749 mm Hg 89%
06:00 +15°C° 0 mm 1 m/s 749 mm Hg 83%
07:00 +18°C° 0 mm 1 m/s 749 mm Hg 78%
08:00 +19°C° 0 mm 2 m/s 749 mm Hg 73%
09:00 +20°C° 0 mm 2 m/s 749 mm Hg 67%
10:00 +23°C° 0 mm 2 m/s 749 mm Hg 61%
11:00 +24°C° 0 mm 2 m/s 749 mm Hg 56%
12:00 +24°C° 0.7 mm 2 m/s 749 mm Hg 59%
13:00 +24°C° 0.7 mm 2 m/s 749 mm Hg 63%
14:00 +23°C° 0.7 mm 2 m/s 748 mm Hg 66%
15:00 +23°C° 1 mm 2 m/s 748 mm Hg 68%
16:00 +23°C° 1 mm 2 m/s 748 mm Hg 70%
17:00 +23°C° 1 mm 2 m/s 748 mm Hg 71%
18:00 +20°C° 0.1 mm 2 m/s 748 mm Hg 74%
19:00 +19°C° 0.1 mm 2 m/s 748 mm Hg 78%
20:00 +18°C° 0.1 mm 2 m/s 748 mm Hg 81%
21:00 +17°C° 0 mm 2 m/s 749 mm Hg 84%
22:00 +16°C° 0 mm 2 m/s 749 mm Hg 87%
23:00 +14°C° 0 mm 2 m/s 749 mm Hg 90%
Mostrare altro